EXS9WF LERS-EGKK

Flight info

Callsign EXS9WF
Flight time N/A
Altitude 34000
Route NATPI DCT EVNAM DCT AGN DCT SECHE DCT UVELI DCT CNA DCT MANAK DCT EPAPU UM184 EKRAS UT507 REVTU DCT ODREP UP88 VASUX
Aircraft A21N/M-SDE3FGHIRWY/LB1

Departure

Time 2026-04-27 16:11
Airport Reus Airport (LERS)

Arrival

Time N/A
Airport London Gatwick Airport (EGKK)
Time Latitude Longitude Altitude Speed Heading
2026-04-27 15:59 41.14660 1.15556 260 ft 0 kts 339°
2026-04-27 16:03 41.14659 1.15556 260 ft 0 kts 339°
2026-04-27 16:03 41.14648 1.15562 260 ft 2 kts 339°
2026-04-27 16:03 41.14635 1.15569 259 ft 2 kts 339°
2026-04-27 16:04 41.14621 1.15575 258 ft 1 kts 339°
2026-04-27 16:04 41.14611 1.15580 258 ft 2 kts 329°
2026-04-27 16:04 41.14601 1.15595 257 ft 2 kts 298°
2026-04-27 16:04 41.14596 1.15614 256 ft 2 kts 271°
2026-04-27 16:05 41.14597 1.15629 256 ft 0 kts 252°
2026-04-27 16:05 41.14600 1.15638 256 ft 1 kts 249°
2026-04-27 16:05 41.14600 1.15639 256 ft 0 kts 249°
2026-04-27 16:07 41.14600 1.15638 256 ft 0 kts 249°
2026-04-27 16:07 41.14598 1.15631 256 ft 2 kts 250°
2026-04-27 16:08 41.14583 1.15584 257 ft 8 kts 233°
2026-04-27 16:08 41.14576 1.15574 257 ft 0 kts 221°
2026-04-27 16:09 41.14566 1.15564 256 ft 2 kts 209°
2026-04-27 16:09 41.14515 1.15569 254 ft 7 kts 161°
2026-04-27 16:10 41.14443 1.15689 249 ft 9 kts 63°
2026-04-27 16:10 41.14748 1.16750 247 ft 131 kts 69°
2026-04-27 16:11 41.15150 1.18108 322 ft 179 kts 71°
2026-04-27 16:11 41.16075 1.21160 1789 ft 179 kts 69°
2026-04-27 16:12 41.17030 1.24277 2904 ft 198 kts 70°
2026-04-27 16:12 41.17556 1.26026 3410 ft 212 kts 70°
2026-04-27 16:12 41.18730 1.29947 4235 ft 253 kts 69°
2026-04-27 16:13 41.19401 1.32188 4837 ft 266 kts 69°
2026-04-27 16:13 41.20827 1.36679 6551 ft 273 kts 58°
2026-04-27 16:13 41.22162 1.38429 7337 ft 279 kts 32°
2026-04-27 16:14 41.25886 1.39674 8953 ft 286 kts 359°
2026-04-27 16:14 41.29828 1.39208 10567 ft 292 kts 353°
2026-04-27 16:15 41.33961 1.38654 11357 ft 324 kts 354°
2026-04-27 16:15 41.38540 1.38120 12121 ft 355 kts 354°
2026-04-27 16:16 41.43509 1.37576 13489 ft 363 kts 354°
2026-04-27 16:16 41.48502 1.37041 14827 ft 371 kts 354°
2026-04-27 16:17 41.53675 1.36487 16100 ft 379 kts 354°
2026-04-27 16:17 41.58889 1.35931 17314 ft 386 kts 354°
2026-04-27 16:18 41.64234 1.35359 18488 ft 394 kts 354°
2026-04-27 16:18 41.69693 1.34775 19680 ft 399 kts 354°
2026-04-27 16:19 41.72433 1.34481 20251 ft 402 kts 354°
2026-04-27 16:19 41.75166 1.34188 20805 ft 405 kts 354°
2026-04-27 16:20 41.83337 1.33309 22365 ft 413 kts 354°
2026-04-27 16:20 41.86101 1.33012 22863 ft 415 kts 354°
2026-04-27 16:20 41.91603 1.32418 23808 ft 420 kts 354°
2026-04-27 16:21 41.94257 1.32130 24228 ft 423 kts 354°
2026-04-27 16:21 42.02941 1.31191 25485 ft 432 kts 354°
2026-04-27 16:22 42.05835 1.30878 25868 ft 434 kts 354°
2026-04-27 16:22 42.11556 1.30256 26579 ft 439 kts 354°
2026-04-27 16:22 42.14427 1.29943 26931 ft 441 kts 354°
2026-04-27 16:23 42.17251 1.29636 27252 ft 444 kts 354°
2026-04-27 16:23 42.23083 1.29001 27881 ft 448 kts 354°
2026-04-27 16:23 42.25991 1.28684 28173 ft 451 kts 354°
2026-04-27 16:24 42.28819 1.28375 28461 ft 453 kts 354°
2026-04-27 16:24 42.34638 1.27738 29279 ft 451 kts 354°
2026-04-27 16:25 42.40433 1.27102 30159 ft 447 kts 354°
2026-04-27 16:25 42.46198 1.26469 30850 ft 447 kts 354°
2026-04-27 16:26 42.51923 1.25839 31349 ft 451 kts 354°
2026-04-27 16:26 42.57755 1.25195 31872 ft 453 kts 354°